Regional Weather Roundup
Issued by NWS

Home | Current Version | Previous Version | Graphics & Text | Print | Product List | Glossary On
Versions: 1 2 3 4 5 6 7 8 9 10 11 12 13 14 15 16 17 18 19 20 21 22 23 24 25 26 27 28 29 30 31 32 33 34 35 36 37 38 39 40 41 42 43 44 45 46 47 48 49 50
000
ASUS43 KLOT 012210
RWRIL

ILLINOIS REGIONAL WEATHER ROUNDUP
NATIONAL WEATHER SERVICE CHICAGO/ROMEOVILLE IL
500 PM CDT FRI AUG 01 2014

NOTE: "FAIR" INDICATES FEW OR NO CLOUDS BELOW 12,000 FEET WITH NO
SIGNIFICANT WEATHER AND/OR OBSTRUCTIONS TO VISIBILITY.

* THESE STATIONS ARE NOT UNDER NWS QUALITY CONTROL. THEY ALSO MAY NOT
  REPORT WEATHER SUCH AS PRECIPITATION OR FOG.

ILZ001-002-007-009-015-016-024-012300-
NORTHWEST ILLINOIS

CITY           SKY/WX    TMP DP  RH WIND       PRES   REMARKS
MOLINE         MOSUNNY   83  59  44 CALM      30.04F HX  83
STERLING*      MOSUNNY   81  61  50 NE5       30.05S HX  81
SAVANNA*       SUNNY     84  55  36 CALM      30.04F HX  83
$$

ILZ003-004-008-010-011-017-018-012300-
NORTH CENTRAL ILLINOIS

CITY           SKY/WX    TMP DP  RH WIND       PRES   REMARKS
ROCKFORD       MOSUNNY   82  59  45 CALM      30.06F HX  82
FREEPORT*      MOSUNNY   80  61  51 W6        30.08S HX  81
ROCHELLE*      PTSUNNY   81  55  41 NW3       30.06S HX  81
DE KALB*       PTSUNNY   78  60  55 CALM      30.07S
PERU*          MOSUNNY   80  60  50 NW5       30.06R HX  81
$$

ILZ005-006-012>014-019>023-012300-
NORTHEAST ILLINOIS

CITY           SKY/WX    TMP DP  RH WIND       PRES   REMARKS
CHICAGO-OHARE  CLOUDY    78  58  49 S9        30.05F
CHICAGO-MIDWAY PTSUNNY   76  62  62 SE10      30.06F
AURORA         MOSUNNY   80  60  50 CALM      30.06R HX  81
LANSING*       PTSUNNY   74  58  57 SE7       30.08R
JOLIET*        CLOUDY    82  56  40 CALM      30.06R HX  82
WAUKEGAN       PTSUNNY   77  58  51 SE10      30.06S
DUPAGE AIRPORT CLOUDY    74  58  57 SE13G22   30.07R
KANKAKEE*      DRIZZLE   72  61  69 E9        30.09R
WHEELING       CLOUDY    79  62  56 SE9       30.07F HX  80
MORRIS*        MOSUNNY   82  61  50 CALM      30.06R HX  82
ROMEOVILLE*    PTSUNNY   75  58  55 NE10G22   30.07R
NORTHERLY ISL    N/A     70  63  78 SE6         N/A
$$

LMZ740>746-012300-
SOUTHERN LAKE MICHIGAN

STATION/POSITION SKY/WX   TEMP    WIND        PRES    VSBY  WAVE
                          AIR SEA DIR/SP/G                  HT/PER
                          (F)     (DEG/KT/KT) (MB)    (MI)  (FT/S)
SOUTHERN BUOY              68 66  160/  6/  8 1018.1F         0
WAUKEGAN HARBOR            71     170/  7/  8   N/A
HARRISON CRIB              69     160/ 11/ 15   N/A
BURNHAM HARBOR             70     150/  4/ 12   N/A
CALUMET HARBOR             75     140/  6/  8 1016.8F
BURNS HARBOR               72     150/  9/ 19   N/A
MICHIGAN CITY              74     140/  8/ 11   N/A
MICHIGAN CITY 6N           72 70  180/  6/  8   N/A           1/ 2
ST. JOSEPH                 71 71  240/  4/  6   N/A           1/ 2
$$

ILZ025>027-034>036-040-047-049-050-058-095>099-012300-
WEST-CENTRAL ILLINOIS

CITY           SKY/WX    TMP DP  RH WIND       PRES   REMARKS
QUINCY         LGT RAIN  75  65  70 NE10      30.07R
GALESBURG*     MOSUNNY   86  61  42 N5        30.05F HX  86
MACOMB*        SUNNY     79  63  57 NW3       30.07S HX  81
JACKSONVILLE*  MOSUNNY   76  66  72 SE8       30.08S
PITTSFIELD*    MOSUNNY   78  66  67 CALM      30.08R HX  80
$$

ILZ028>032-037-038-041>044-048-051>054-059>061-012300-
CENTRAL ILLINOIS

CITY           SKY/WX    TMP DP  RH WIND       PRES   REMARKS
PONTIAC        TSTM      66  63  88 S7        30.12R
DECATUR        CLOUDY    67  63  87 W5        30.10R
PEORIA         CLOUDY    67  61  81 SE10G21   30.09R
LACON*         MOSUNNY   72  59  63 S9        30.06F
LINCOLN*       CLOUDY    75  61  62 NW5       30.07R
SPRINGFIELD    CLOUDY    74  64  71 S8        30.09R
TAYLORVILLE    LGT RAIN  64  63  94 SE6       30.10S
$$

ILZ033-039-045-046-055>057-062-063-012300-
EAST-CENTRAL ILLINOIS

CITY           SKY/WX    TMP DP  RH WIND       PRES   REMARKS
CHAMPAIGN      CLOUDY    73  62  68 NW5       30.09R
DANVILLE*      CLOUDY    69  62  77 N5        30.07R
RANTOUL*       LGT RAIN  71  60  69 W6        30.11R
MATTOON        LGT RAIN  69  65  86 W7        30.07R
PARIS*         CLOUDY    73  65  75 CALM      30.07F
$$

ILZ079-100>102-012300-
SOUTHWEST ILLINOIS

CITY           SKY/WX    TMP DP  RH WIND       PRES   REMARKS
ALTON          PTSUNNY   77  66  69 VRB5      30.06S
BELLEVILLE     CLOUDY    82  65  55 W6        30.04R HX  84
CAHOKIA*       LGT RAIN  76  67  73 N12       30.05S
SPARTA*        MOSUNNY   81  63  54 SE5       30.04S HX  82
$$

ILZ064>066-069>071-074>076-080>082-084>086-088>090-092>094-012300-
SOUTH-CENTRAL ILLINOIS

CITY           SKY/WX    TMP DP  RH WIND       PRES   REMARKS
CARBONDALE     PTSUNNY   82  63  52 SE6       30.03F HX  83
CAIRO*         MOSUNNY   87  62  43 CALM      30.03F HX  87
EFFINGHAM*     TSTM      76  58  54 NW21      30.06R
MARION         PTSUNNY   84  63  48 NE7       30.04F HX  85
MT. VERNON     MOSUNNY   84  63  48 S5        30.05S HX  85
CENTRALIA*     PTSUNNY   86  57  37 SE3       30.04S HX  84
SALEM*         PTSUNNY   84  64  50 E3        30.05S HX  85
METROPOLIS*    MOSUNNY   85  54  34 CALM      30.02F HX  83
$$

ILZ067-068-072-073-078-083-087-091-012300-
SOUTHEAST ILLINOIS

CITY           SKY/WX    TMP DP  RH WIND       PRES   REMARKS
LAWRENCEVILLE  SUNNY     82  61  48 S6        30.04F HX  83
FLORA*         SUNNY     81  62  52 SE6       30.05S HX  82
FAIRFIELD*     MOSUNNY   82  66  57 CALM      30.04S HX  85
HARRISBURG*    SUNNY     83  63  51 CALM      30.05S HX  84
ROBINSON*      MOSUNNY   84  62  46 S5        30.05S HX  85
CARMI*         MOSUNNY   84  64  51 CALM      30.03S HX  86
$$

ABBREVIATIONS USED IN REMARKS
   TC - TEMPERATURE IN CELSIUS
  WCI - WIND CHILL INDEX
   HX - HEAT INDEX
  VSB - VISIBILITY
$$



USA.gov is the U.S. government's official web portal to all federal, state and local government web resources and services.